Satellite: MET-3/5 Catalog number: 21655 Epoch time: 12026.63284473 Element set: 320 Inclination: 082.5548 deg RA of node: 252.8952 deg Eccentricity: 0.0012867 Arg of perigee: 323.5625 deg Mean anomaly: 036.4580 deg Mean motion: 13.17035405 rev/day Decay rate: 5.1e-07 rev/day^2 Epoch rev: 98313 Checksum: 291
Satellite: MET-2/21 Catalog number: 22782 Epoch time: 12025.83436603 Element set: 0321 Inclination: 082.5504 deg RA of node: 146.2478 deg Eccentricity: 0.0021976 Arg of perigee: 191.2338 deg Mean anomaly: 168.8341 deg Mean motion: 13.83675994 rev/day Decay rate: 9.2e-07 rev/day^2 Epoch rev: 92934 Checksum: 318
Satellite: OKEAN-4 Catalog number: 23317 Epoch time: 12026.86426026 Element set: 787 Inclination: 082.5404 deg RA of node: 164.2199 deg Eccentricity: 0.0023188 Arg of perigee: 100.3899 deg Mean anomaly: 259.9931 deg Mean motion: 14.83552659 rev/day Decay rate: 1.365e-05 rev/day^2 Epoch rev: 93370 Checksum: 326
Satellite: NOAA-14 Catalog number: 23455 Epoch time: 12025.95721295 Element set: 0777 Inclination: 098.8373 deg RA of node: 111.2203 deg Eccentricity: 0.0009842 Arg of perigee: 011.6761 deg Mean anomaly: 348.4635 deg Mean motion: 14.13872549 rev/day Decay rate: 5.1e-07 rev/day^2 Epoch rev: 88055 Checksum: 308
Satellite: NOAA-15 Catalog number: 25338 Epoch time: 12025.82281680 Element set: 0114 Inclination: 098.6772 deg RA of node: 014.1804 deg Eccentricity: 0.0010985 Arg of perigee: 161.0734 deg Mean anomaly: 199.0823 deg Mean motion: 14.25023248 rev/day Decay rate: 1.42e-06 rev/day^2 Epoch rev: 71243 Checksum: 277
Satellite: RESURS Catalog number: 25394 Epoch time: 12026.86225053 Element set: 999 Inclination: 098.3089 deg RA of node: 022.6692 deg Eccentricity: 0.0001032 Arg of perigee: 339.8219 deg Mean anomaly: 020.2922 deg Mean motion: 14.24271019 rev/day Decay rate: 6.5e-07 rev/day^2 Epoch rev: 70414 Checksum: 282
Satellite: FENGYUN1 Catalog number: 25730 Epoch time: 12025.88064419 Element set: 0528 Inclination: 098.8347 deg RA of node: 347.4627 deg Eccentricity: 0.0021442 Arg of perigee: 052.0559 deg Mean anomaly: 308.2545 deg Mean motion: 14.09180177 rev/day Decay rate: 1.028e-05 rev/day^2 Epoch rev: 65442 Checksum: 299
Satellite: OKEAN-0 Catalog number: 25860 Epoch time: 12025.97185206 Element set: 0542 Inclination: 097.9150 deg RA of node: 351.7201 deg Eccentricity: 0.0001340 Arg of perigee: 043.5548 deg Mean anomaly: 316.5765 deg Mean motion: 14.74065461 rev/day Decay rate: 5.55e-06 rev/day^2 Epoch rev: 67347 Checksum: 290
Satellite: NOAA-16 Catalog number: 26536 Epoch time: 12025.90105407 Element set: 0598 Inclination: 099.1153 deg RA of node: 065.6827 deg Eccentricity: 0.0011288 Arg of perigee: 125.6183 deg Mean anomaly: 234.6017 deg Mean motion: 14.12697670 rev/day Decay rate: -1.74e-06 rev/day^2 Epoch rev: 58480 Checksum: 309
Satellite: NOAA-17 Catalog number: 27453 Epoch time: 12025.72391704 Element set: 0575 Inclination: 098.3533 deg RA of node: 059.9028 deg Eccentricity: 0.0011197 Arg of perigee: 214.0139 deg Mean anomaly: 146.0318 deg Mean motion: 14.24386107 rev/day Decay rate: 5.0e-07 rev/day^2 Epoch rev: 49833 Checksum: 294
Satellite: NOAA-18 Catalog number: 28654 Epoch time: 12025.74758509 Element set: 0051 Inclination: 099.0277 deg RA of node: 342.7873 deg Eccentricity: 0.0014063 Arg of perigee: 195.6917 deg Mean anomaly: 164.3823 deg Mean motion: 14.11594838 rev/day Decay rate: 1.0e-08 rev/day^2 Epoch rev: 34432 Checksum: 315
Satellite: NOAA-19 Catalog number: 33591 Epoch time: 12025.72338195 Element set: 0240 Inclination: 098.8520 deg RA of node: 327.3939 deg Eccentricity: 0.0014850 Arg of perigee: 067.7938 deg Mean anomaly: 292.4807 deg Mean motion: 14.11285542 rev/day Decay rate: 2.44e-06 rev/day^2 Epoch rev: 15277 Checksum: 318
/EX SB KEPS @ AMSAT $ORB12027.M Orbital Elements 12027.MISC
HR AMSAT ORBITAL ELEMENTS FOR MANNED AND MISCELLANEOUS SATELLITES FROM WA5QGD FORT WORTH,TX January 27, 2012 Send SUBSCRIBE KEPS/UNSUBSCRIBE KEPS to [email protected] only BID: ORB12027.M TO ALL RADIO AMATEURS BT
Satellite: HUBBLE Catalog number: 20580 Epoch time: 12026.22940686 Element set: 930 Inclination: 028.4705 deg RA of node: 358.8017 deg Eccentricity: 0.0003110 Arg of perigee: 335.4313 deg Mean anomaly: 024.6203 deg Mean motion: 15.02133642 rev/day Decay rate: 2.061e-05 rev/day^2 Epoch rev: 99321 Checksum: 245
Satellite: ISS Catalog number: 25544 Epoch time: 12026.80971648 Element set: 895 Inclination: 051.6430 deg RA of node: 116.2580 deg Eccentricity: 0.0021930 Arg of perigee: 327.1352 deg Mean anomaly: 128.5455 deg Mean motion: 15.59095309 rev/day Decay rate: 2.2510e-04 rev/day^2 Epoch rev: 75581 Checksum: 295
Satellite: CO-58 Catalog number: 28895 Epoch time: 12025.83215204 Element set: 0084 Inclination: 097.9372 deg RA of node: 258.2410 deg Eccentricity: 0.0016771 Arg of perigee: 241.0415 deg Mean anomaly: 118.9086 deg Mean motion: 14.60460565 rev/day Decay rate: 1.027e-05 rev/day^2 Epoch rev: 33273 Checksum: 297
Satellite: FALCON Catalog number: 30776 Epoch time: 12026.55291855 Element set: 268 Inclination: 035.4330 deg RA of node: 067.3189 deg Eccentricity: 0.0002077 Arg of perigee: 228.6806 deg Mean anomaly: 131.3732 deg Mean motion: 15.06479606 rev/day Decay rate: 4.227e-05 rev/day^2 Epoch rev: 26872 Checksum: 302
Satellite: MAST Catalog number: 31126 Epoch time: 12025.95516102 Element set: 0372 Inclination: 097.8806 deg RA of node: 045.4100 deg Eccentricity: 0.0093518 Arg of perigee: 196.5595 deg Mean anomaly: 163.2560 deg Mean motion: 14.54017892 rev/day Decay rate: 6.89e-06 rev/day^2 Epoch rev: 25345 Checksum: 297
Satellite: CAPE1 Catalog number: 31130 Epoch time: 12026.55727340 Element set: 379 Inclination: 097.8855 deg RA of node: 042.4636 deg Eccentricity: 0.0101613 Arg of perigee: 206.8386 deg Mean anomaly: 152.7539 deg Mean motion: 14.52749992 rev/day Decay rate: 8.20e-06 rev/day^2 Epoch rev: 25306 Checksum: 303
Satellite: COMPASS Catalog number: 32787 Epoch time: 12025.69261347 Element set: 0206 Inclination: 097.8217 deg RA of node: 090.1343 deg Eccentricity: 0.0015750 Arg of perigee: 166.5962 deg Mean anomaly: 193.5708 deg Mean motion: 14.83445773 rev/day Decay rate: 3.189e-05 rev/day^2 Epoch rev: 20253 Checksum: 310
Satellite: AAUSAT2 Catalog number: 32788 Epoch time: 12025.82591828 Element set: 0198 Inclination: 097.8223 deg RA of node: 090.5708 deg Eccentricity: 0.0016172 Arg of perigee: 165.8129 deg Mean anomaly: 194.3575 deg Mean motion: 14.83718961 rev/day Decay rate: 3.256e-05 rev/day^2 Epoch rev: 20257 Checksum: 332
Satellite: DO-64 Catalog number: 32789 Epoch time: 12025.86327804 Element set: 0215 Inclination: 097.8316 deg RA of node: 092.1400 deg Eccentricity: 0.0015217 Arg of perigee: 163.7984 deg Mean anomaly: 196.3700 deg Mean motion: 14.84822768 rev/day Decay rate: 4.692e-05 rev/day^2 Epoch rev: 20260 Checksum: 315
Satellite: CO-66 Catalog number: 32791 Epoch time: 12025.63076655 Element set: 0202 Inclination: 097.8212 deg RA of node: 089.9158 deg Eccentricity: 0.0015897 Arg of perigee: 166.3371 deg Mean anomaly: 193.8272 deg Mean motion: 14.82960406 rev/day Decay rate: 2.409e-05 rev/day^2 Epoch rev: 20246 Checksum: 322
Satellite: RS-30 Catalog number: 32953 Epoch time: 12026.50359182 Element set: 467 Inclination: 082.4998 deg RA of node: 023.8619 deg Eccentricity: 0.0017425 Arg of perigee: 259.6894 deg Mean anomaly: 100.2229 deg Mean motion: 12.43020353 rev/day Decay rate: 1.0e-07 rev/day^2 Epoch rev: 16683 Checksum: 292
Satellite: TACSAT-3 Catalog number: 35001 Epoch time: 12026.81591419 Element set: 845 Inclination: 040.4479 deg RA of node: 239.7374 deg Eccentricity: 0.0005107 Arg of perigee: 319.9121 deg Mean anomaly: 040.1225 deg Mean motion: 15.70512357 rev/day Decay rate: 9.3088e-04 rev/day^2 Epoch rev: 15193 Checksum: 285
Satellite: PHARMSAT Catalog number: 35002 Epoch time: 12026.85580099 Element set: 777 Inclination: 040.4647 deg RA of node: 242.3033 deg Eccentricity: 0.0006755 Arg of perigee: 078.9174 deg Mean anomaly: 281.2367 deg Mean motion: 15.63397822 rev/day Decay rate: 5.2314e-04 rev/day^2 Epoch rev: 15191 Checksum: 301
Satellite: METEOR-M Catalog number: 35865 Epoch time: 12026.79025528 Element set: 99 Inclination: 098.6759 deg RA of node: 083.6542 deg Eccentricity: 0.0003200 Arg of perigee: 097.9947 deg Mean anomaly: 262.1592 deg Mean motion: 14.21854226 rev/day Decay rate: -1.6e-07 rev/day^2 Epoch rev: 12236 Checksum: 311
Satellite: RS-38 Catalog number: 35869 Epoch time: 12026.62069582 Element set: 97 Inclination: 098.6729 deg RA of node: 083.5043 deg Eccentricity: 0.0005429 Arg of perigee: 102.6249 deg Mean anomaly: 257.5551 deg Mean motion: 14.22051653 rev/day Decay rate: 4.7e-07 rev/day^2 Epoch rev: 12235 Checksum: 309
Satellite: ARISSAT1 Catalog number: 37772 Epoch time: 12004.04884568 Element set: 479 Inclination: 051.6129 deg RA of node: 213.1240 deg Eccentricity: 0.0007478 Arg of perigee: 255.9283 deg Mean anomaly: 104.1611 deg Mean motion: 16.41716225 rev/day Decay rate: 1.3494171e-01 rev/day^2 Epoch rev: 2407 Checksum: 290
Satellite: JUGNU Catalog number: 37839 Epoch time: 12025.50564863 Element set: 74 Inclination: 019.9643 deg RA of node: 148.6643 deg Eccentricity: 0.0019874 Arg of perigee: 080.1756 deg Mean anomaly: 280.0891 deg Mean motion: 14.12019925 rev/day Decay rate: 6.19e-06 rev/day^2 Epoch rev: 1491 Checksum: 310
Satellite: SRMSAT Catalog number: 37841 Epoch time: 12025.50650957 Element set: 0075 Inclination: 019.9708 deg RA of node: 150.7313 deg Eccentricity: 0.0011502 Arg of perigee: 050.8365 deg Mean anomaly: 309.3097 deg Mean motion: 14.10110123 rev/day Decay rate: 2.64e-06 rev/day^2 Epoch rev: 01489 Checksum: 260
